Etusivu
METAR-TAF:

METAR-TAF

Lentoasemat :

Dumas, Texas, Yhdysvallat

Leveyspiiri: 35-51-28N, Pituuspiiri: 102-00-47W, korkeus merenpinnasta: 1129 m

Tämänhetkinen sää

Tämä raportti tehtiin 12 minuuttia sitten, kello 11.15 UTC
Tuuli 8 kn luoteesta
Lämpötila 0°C
Kosteus 93%
Ilmanpaine 1026 hPa
Näkyvyys: 16.1 km
selkeää

METAR: KDUX 061115Z AUTO 32008KT 10SM CLR 00/M01 A3029 RMK AO2 T00001015

Aika: 05:27 (11:27 UTC)


TAF: puuttuu

Säähavainnot ja -ennusteet yli 4000 lentoasemalta (METAR- ja TAF-raportit).

Käytössä olevat sääasemat on merkitty karttaan keltaisilla ja punaisilla pisteillä.

Aseta hiiri pisteen päälle nähdäksesi sääaseman nimen.

Klikkaa sitten nähdäksesi säähavainnot ja -ennusteet.

Kartan vaihtaminen: klikkaa mustalla rastilla varustettuja vihreitä pisteitä, niin voit zoomata sisään; viivalla varustettua vihreää pistettä, niin voit zoomata ulos tai vihreitä nuolia, niin pääset viereisille kartoille.


METAR-TAF: